User: anonymous   Login
Location: Sternwarte ZA, Rosenfeld-Brittheim
(48.2889°N, 8.6789°E)
Time: 06:59:16
(UTC+01:00)
Language:

ISS - Orbit

View from above orbital plane
View from above orbital plane
View from above satellite
View from above satellite

Ground track
Ground track

The orbit data is extracted from the following two-line orbital elements,

1 25544U 98067A   17345.95689852  .00016717  00000-0  10270-3 0  9043
2 25544  51.6409 232.1171 0003246 226.7446 133.3436 15.54146269  9397
Epoch (UTC): 11 December 2017 22:57:56
Eccentricity: 0.0003246
inclination: 51.6409°
perigee height: 402 km
apogee height: 407 km
right ascension of ascending node: 232.1171°
argument of perigee: 226.7446°
revolutions per day: 15.54146269
mean anomaly at epoch: 133.3436°
orbit number at epoch: 939

The dashed part of the orbit path shows where the satellite is in the earth's shadow,  

DLR